N5VIS Weather Reports


time (UTC)temp
C
wind
direction
speed
KPH
gust
KPH
rain 1hr
cm
rain 24hr
cm
rain mn
cm
humidity
%
barometer
mb
20260902180028 32 79 0.0 3.2 0.00 0.00 0.00 71 1017.4
20260902175528 32 97 0.0 1.6 0.00 0.00 0.00 72 1017.5
20260902175024 32 93 1.6 1.6 0.00 0.00 0.00 73 1017.7
20260902174520 32 101 1.6 3.2 0.00 0.00 0.00 70 1017.7
20260902174016 32 79 0.0 0.0 0.00 0.00 0.00 72 1017.7
20260902173515 32 122 0.0 4.8 0.00 0.00 0.00 73 1017.7
20260902173010 31 110 0.0 0.0 0.00 0.00 0.00 73 1017.7
20260902172509 32 106 0.0 1.6 0.00 0.00 0.00 72 1017.9
20260902172005 32 90 1.6 3.2 0.00 0.00 0.00 72 1018.0
20260902171500 32 155 0.0 3.2 0.00 0.00 0.00 73 1018.1
20260902170956 32 114 1.6 1.6 0.00 0.00 0.00 72 1018.1
20260902170456 32 114 0.0 0.0 0.00 0.00 0.00 74 1018.2
20260902165952 32 114 0.0 3.2 0.00 0.00 0.00 71 1018.3
20260902165451 32 129 1.6 4.8 0.00 0.00 0.00 71 1018.2
20260902164946 32 91 0.0 3.2 0.00 0.00 0.00 72 1018.4
20260902164441 32 316 3.2 4.8 0.00 0.00 0.00 72 1018.3
20260902163940 32 84 1.6 1.6 0.00 0.00 0.00 73 1018.0
20260902163435 31 89 3.2 6.4 0.00 0.00 0.00 74 1018.4
20260902162933 31 123 3.2 4.8 0.00 0.00 0.00 75 1018.6
20260902162429 31 131 4.8 4.8 0.00 0.00 0.00 74 1018.4
20260902161928 31 126 1.6 4.8 0.00 0.00 0.00 73 1018.3
20260902161424 32 213 0.0 6.4 0.00 0.00 0.00 72 1018.4
20260902160920 32 197 3.2 3.2 0.00 0.00 0.00 72 1018.3
20260902160415 32 122 6.4 6.4 0.00 0.00 0.00 71 1018.3
20260902155913 32 185 1.6 3.2 0.00 0.00 0.00 69 1018.6
20260902155409 32 242 1.6 6.4 0.00 0.00 0.00 72 1018.4
20260902154902 32 197 3.2 4.8 0.00 0.00 0.00 73 1018.7
20260902154358 32 180 1.6 9.7 0.00 0.00 0.00 73 1018.5
20260902153857 32 197 6.4 9.7 0.00 0.00 0.00 72 1018.5
20260902153356 32 186 1.6 6.4 0.00 0.00 0.00 73 1018.6
20260902152852 32 145 3.2 9.7 0.00 0.00 0.00 73 1018.5
20260902152348 32 195 3.2 6.4 0.00 0.00 0.00 73 1018.7
20260902151843 31 140 0.0 4.8 0.00 0.00 0.00 75 1018.8
20260902151338 31 205 3.2 4.8 0.00 0.00 0.00 75 1018.9
20260902150833 32 180 1.6 6.4 0.00 0.00 0.00 74 1018.4
20260902150329 31 127 1.6 3.2 0.00 0.00 0.00 75 1018.7
20260902145828 31 190 3.2 4.8 0.00 0.00 0.00 77 1018.6
20260902145324 31 148 3.2 4.8 0.00 0.00 0.00 77 1018.5
20260902144819 31 237 1.6 1.6 0.00 0.00 0.00 78 1018.6
20260902144315 30 154 1.6 4.8 0.00 0.00 0.00 78 1018.6
20260902143810 30 219 6.4 9.7 0.00 0.00 0.00 79 1018.4
20260902143305 30 132 3.2 4.8 0.00 0.00 0.00 80 1018.5
20260902142801 30 177 1.6 6.4 0.00 0.00 0.00 79 1018.6
20260902142256 30 228 1.6 6.4 0.00 0.00 0.00 81 1018.4
20260902141756 30 160 6.4 9.7 0.00 0.00 0.00 81 1018.4
20260902141252 30 221 1.6 6.4 0.00 0.00 0.00 81 1018.4
20260902140752 30 171 3.2 4.8 0.00 0.00 0.00 81 1018.3
20260902140247 30 229 3.2 6.4 0.00 0.00 0.00 82 1018.3
20260902135746 30 198 3.2 4.8 0.00 0.00 0.00 82 1018.0
20260902135242 29 191 1.6 6.4 0.00 0.00 0.00 83 1018.3
20260902134742 29 174 3.2 3.2 0.00 0.00 0.00 84 1018.4
20260902134237 29 163 3.2 9.7 0.00 0.00 0.00 85 1018.4
20260902133733 30 224 0.0 6.4 0.00 0.00 0.00 85 1018.6
20260902133232 29 101 3.2 4.8 0.00 0.00 0.00 84 1018.4
20260902132727 28 246 0.0 3.2 0.00 0.00 0.00 85 1018.6
20260902132223 29 145 0.0 3.2 0.00 0.00 0.00 84 1018.5
20260902131718 28 211 0.0 4.8 0.00 0.00 0.00 86 1018.6
20260902131214 28 142 3.2 4.8 0.00 0.00 0.00 86 1018.6
20260902130708 28 276 6.4 9.7 0.00 0.00 0.00 86 1018.6
20260902130204 28 251 0.0 3.2 0.00 0.00 0.00 86 1018.7
20260902125659 28 274 0.0 3.2 0.00 0.00 0.00 87 1018.6
20260902125155 28 275 0.0 4.8 0.00 0.00 0.00 86 1018.4
20260902124651 28 255 1.6 3.2 0.00 0.00 0.00 87 1018.2
20260902124151 27 235 3.2 4.8 0.00 0.00 0.00 88 1018.5
20260902123647 27 176 1.6 3.2 0.00 0.00 0.00 89 1018.4
20260902123143 27 230 1.6 3.2 0.00 0.00 0.00 88 1018.3
20260902122643 27 282 0.0 3.2 0.00 0.00 0.00 89 1018.4
20260902122139 27 252 0.0 6.4 0.00 0.00 0.00 90 1018.4
20260902121638 27 267 1.6 3.2 0.00 0.00 0.00 91 1018.4
20260902121133 27 292 1.6 1.6 0.00 0.00 0.00 90 1018.4
20260902120629 27 281 0.0 0.0 0.00 0.00 0.00 91 1018.4
20260902120126 26 281 0.0 0.0 0.00 0.00 0.00 92 1018.0
20260902115620 26 281 0.0 0.0 0.00 0.00 0.00 93 1018.2
20260902115116 25 268 3.2 4.8 0.00 0.00 0.00 95 1018.1
20260902114612 25 170 1.6 3.2 0.00 0.00 0.00 97 1017.9
20260902114112 25 186 0.0 1.6 0.00 0.00 0.00 98 1018.3
20260902113608 25 207 0.0 0.0 0.00 0.00 0.00 98 1018.1
20260902113102 25 207 0.0 1.6 0.00 0.00 0.00 98 1018.0
20260902112557 25 197 0.0 0.0 0.00 0.00 0.00 98 1017.9
20260902112054 25 197 0.0 0.0 0.00 0.00 0.00 98 1017.8
20260902111550 25 197 0.0 0.0 0.00 0.00 0.00 98 1017.9
20260902111045 25 197 0.0 0.0 0.00 0.00 0.00 97 1017.8
20260902110542 25 197 0.0 1.6 0.00 0.00 0.00 97 1017.6
20260902110037 24 198 0.0 0.0 0.00 0.00 0.00 98 1017.6
20260902105532 24 198 0.0 0.0 0.00 0.00 0.00 98 1017.6
20260902105031 25 198 0.0 0.0 0.00 0.00 0.00 97 1017.7
20260902104527 25 198 0.0 0.0 0.00 0.00 0.00 97 1017.3
20260902104027 25 198 0.0 0.0 0.00 0.00 0.00 97 1017.7
20260902103523 24 195 0.0 1.6 0.00 0.00 0.00 99 1017.4
20260902103018 24 195 0.0 1.6 0.00 0.00 0.00 99 1017.5
20260902102514 24 195 0.0 0.0 0.00 0.00 0.00 99 1017.5
20260902102011 24 195 0.0 0.0 0.00 0.00 0.00 99 1017.4
20260902101506 25 195 0.0 0.0 0.00 0.00 0.00 99 1017.4
20260902101004 25 195 0.0 0.0 0.00 0.00 0.00 99 1017.4
20260902100500 25 195 0.0 0.0 0.00 0.00 0.00 99 1017.4
20260902095959 25 195 0.0 0.0 0.00 0.00 0.00 98 1017.4
20260902095454 25 195 0.0 0.0 0.00 0.00 0.00 99 1017.3
20260902094953 25 195 0.0 0.0 0.00 0.00 0.00 99 1017.3
20260902094449 25 195 0.0 0.0 0.00 0.00 0.00 99 1017.2
20260902093944 25 195 0.0 0.0 0.00 0.00 0.00 98 1017.4
20260902093439 25 195 0.0 0.0 0.00 0.00 0.00 98 1017.3
20260902092938 25 195 0.0 0.0 0.00 0.00 0.00 98 1016.9
20260902092433 25 195 0.0 0.0 0.00 0.00 0.00 98 1017.2
20260902091933 25 195 0.0 0.0 0.00 0.00 0.00 97 1016.9
20260902091429 25 195 0.0 0.0 0.00 0.00 0.00 97 1017.2
20260902090925 25 195 0.0 0.0 0.00 0.00 0.00 97 1017.0
20260902090425 25 195 0.0 0.0 0.00 0.00 0.00 98 1016.9
20260902085924 25 195 0.0 0.0 0.00 0.00 0.00 98 1017.0
20260902085420 25 195 0.0 0.0 0.00 0.00 0.00 98 1017.0
20260902084915 25 195 0.0 0.0 0.00 0.00 0.00 98 1016.9
20260902084412 25 195 0.0 0.0 0.00 0.00 0.00 97 1017.0
20260902083907 25 195 0.0 0.0 0.00 0.00 0.00 97 1016.8
20260902083406 25 195 0.0 0.0 0.00 0.00 0.00 97 1016.8
20260902082901 25 195 0.0 0.0 0.00 0.00 0.00 97 1016.7
20260902082357 25 195 0.0 0.0 0.00 0.00 0.00 97 1016.6
20260902081854 25 195 0.0 0.0 0.00 0.00 0.00 97 1016.7
20260902081349 25 195 0.0 0.0 0.00 0.00 0.00 97 1016.7
20260902080844 25 195 0.0 0.0 0.00 0.00 0.00 96 1016.7
20260902080341 25 195 0.0 0.0 0.00 0.00 0.00 96 1016.4
20260902075840 25 195 0.0 0.0 0.00 0.00 0.00 96 1016.7
20260902075337 26 195 0.0 0.0 0.00 0.00 0.00 95 1016.8
20260902074831 26 195 0.0 0.0 0.00 0.00 0.00 95 1016.6
20260902074327 26 195 0.0 0.0 0.00 0.00 0.00 94 1016.5
20260902073827 26 195 0.0 0.0 0.00 0.00 0.00 93 1016.5
20260902054125 26 104 0.0 0.0 0.00 0.00 0.00 97 1017.0
20260902053620 26 104 0.0 0.0 0.00 0.00 0.00 97 1017.0
20260902053115 26 104 0.0 0.0 0.00 0.00 0.00 96 1016.9
20260902052614 26 104 0.0 0.0 0.00 0.00 0.00 96 1017.0
20260902052110 26 104 0.0 0.0 0.00 0.00 0.00 96 1017.1
20260902051609 26 104 0.0 0.0 0.00 0.00 0.00 96 1017.1
20260902051109 26 104 0.0 0.0 0.00 0.00 0.00 96 1017.0
20260902050603 26 104 0.0 0.0 0.00 0.00 0.00 95 1017.0
20260902050059 26 104 0.0 0.0 0.00 0.00 0.00 95 1017.2
20260902045554 26 104 0.0 0.0 0.00 0.00 0.00 95 1017.2
20260902045050 26 104 0.0 0.0 0.00 0.00 0.00 95 1017.1
20260902044550 26 104 0.0 0.0 0.00 0.00 0.00 95 1017.3
20260902044046 26 104 0.0 0.0 0.00 0.00 0.00 95 1017.3
20260902043541 26 104 0.0 0.0 0.00 0.00 0.00 95 1017.3
20260902043036 26 104 0.0 0.0 0.00 0.00 0.00 95 1017.4
20260902042536 26 104 0.0 0.0 0.00 0.00 0.00 95 1017.3
20260902042032 26 104 0.0 0.0 0.00 0.00 0.00 95 1017.4
20260902041531 26 104 0.0 0.0 0.00 0.00 0.00 94 1017.6
20260902041026 26 104 0.0 0.0 0.00 0.00 0.00 95 1017.4
20260902040526 26 104 0.0 0.0 0.00 0.00 0.00 94 1017.6
20260902040021 26 104 0.0 0.0 0.00 0.00 0.00 94 1017.4
20260902035519 26 104 0.0 0.0 0.00 0.00 0.00 94 1017.3
20260902035015 26 104 0.0 0.0 0.00 0.00 0.00 94 1017.5
20260902034514 27 104 0.0 0.0 0.00 0.00 0.00 94 1017.6
20260902034014 27 104 0.0 0.0 0.00 0.00 0.00 94 1017.8
20260902033514 -17 0.0 0.0 0.00 0.00 0.00 1017.6
20260902033013 -17 0.0 0.0 0.00 0.00 0.00 1017.6
20260902032507 27 104 0.0 0.0 0.00 0.00 0.00 93 1017.7
20260902032003 27 104 0.0 0.0 0.00 0.00 0.00 93 1017.8
20260902031457 27 104 0.0 0.0 0.00 0.00 0.00 93 1017.7
20260902030954 27 104 0.0 0.0 0.00 0.00 0.00 93 1017.9
20260902030453 -17 0.0 0.0 0.00 0.00 0.00 1017.6
20260902025952 27 104 0.0 0.0 0.00 0.00 0.00 92 1017.7
20260902025448 27 104 0.0 0.0 0.00 0.00 0.00 92 1017.5
20260902024949 27 104 0.0 0.0 0.00 0.00 0.00 91 1017.5
20260902024444 27 104 0.0 0.0 0.00 0.00 0.00 91 1017.4
20260902023944 -17 0.0 0.0 0.00 0.00 0.00 1017.3
20260902023440 27 104 0.0 0.0 0.00 0.00 0.00 91 1017.4
20260902022939 27 104 0.0 0.0 0.00 0.00 0.00 91 1017.5
20260902022434 27 104 0.0 0.0 0.00 0.00 0.00 91 1017.4
20260902021931 27 104 0.0 0.0 0.00 0.00 0.00 91 1017.4
20260902021431 27 104 0.0 0.0 0.00 0.00 0.00 91 1017.3
20260902020926 27 104 0.0 0.0 0.00 0.00 0.00 91 1017.2
20260902020422 27 104 0.0 0.0 0.00 0.00 0.00 91 1017.3
20260902015917 27 104 0.0 0.0 0.00 0.00 0.00 90 1017.1
20260902015413 27 104 0.0 0.0 0.00 0.00 0.00 90 1017.2
20260902014908 28 104 0.0 0.0 0.00 0.00 0.00 88 1017.0
20260902014405 28 104 0.0 0.0 0.00 0.00 0.00 88 1016.9
20260902013904 28 104 0.0 0.0 0.00 0.00 0.00 88 1016.8
20260902013359 28 104 0.0 0.0 0.00 0.00 0.00 87 1016.9
20260902012855 28 104 0.0 0.0 0.00 0.00 0.00 87 1016.9
20260902012351 28 104 0.0 0.0 0.00 0.00 0.00 86 1017.0
20260902011846 28 104 0.0 0.0 0.00 0.00 0.00 87 1016.7
20260902011340 28 104 0.0 1.6 0.00 0.00 0.00 86 1016.7
20260902010840 28 95 0.0 0.0 0.00 0.00 0.00 86 1016.7
20260902010335 28 113 0.0 0.0 0.00 0.00 0.00 86 1016.8
20260902005834 28 108 0.0 0.0 0.00 0.00 0.00 86 1016.6
20260902005329 28 112 0.0 0.0 0.00 0.00 0.00 87 1016.5
20260902004824 28 112 0.0 0.0 0.00 0.00 0.00 86 1016.4
20260902004319 -17 0.0 0.0 0.00 0.00 0.00 1016.3
20260902003814 -17 0.0 0.0 0.00 0.00 0.00 1016.3
20260902003309 -17 0.0 0.0 0.00 0.00 0.00 1016.6
20260902002805 28 112 0.0 0.0 0.00 0.00 0.00 85 1016.3
20260902002306 28 112 0.0 0.0 0.00 0.00 0.00 85 1016.4
20260902001800 28 112 0.0 0.0 0.00 0.00 0.00 84 1016.4
20260902001255 28 110 0.0 0.0 0.00 0.00 0.00 85 1016.4
20260902000755 29 108 0.0 0.0 0.00 0.00 0.00 83 1016.0
20260902000250 29 108 0.0 0.0 0.00 0.00 0.00 83 1016.1
20260901235750 29 108 3.2 3.2 0.00 0.00 0.00 82 1016.2
20260901235245 29 92 0.0 0.0 0.00 0.00 0.00 82 1016.3
20260901234744 30 133 0.0 0.0 0.00 0.00 0.00 82 1016.0
20260901234239 30 133 0.0 1.6 0.00 0.00 0.00 82 1016.2
20260901233733 30 120 0.0 0.0 0.00 0.00 0.00 80 1016.1
20260901233230 30 126 1.6 1.6 0.00 0.00 0.00 79 1016.2
20260901232730 31 130 0.0 0.0 0.00 0.00 0.00 77 1016.3
20260901232226 31 120 1.6 3.2 0.00 0.00 0.00 76 1016.5
20260901231722 31 130 0.0 0.0 0.00 0.00 0.00 75 1016.5
20260901231218 31 130 0.0 0.0 0.00 0.00 0.00 75 1016.4
20260901230713 31 115 1.6 3.2 0.00 0.00 0.00 75 1016.5
20260901230213 32 63 1.6 1.6 0.00 0.00 0.00 75 1016.3
20260901225708 32 63 1.6 3.2 0.00 0.00 0.00 75 1016.4
20260901225202 32 306 1.6 3.2 0.00 0.00 0.00 75 1016.1
20260901224659 32 81 3.2 3.2 0.00 0.00 0.00 75 1016.4
20260901224155 32 26 0.0 1.6 0.00 0.00 0.00 75 1016.2
20260901223650 32 169 0.0 0.0 0.00 0.00 0.00 74 1016.3
20260901223145 31 32 0.0 0.0 0.00 0.00 0.00 75 1016.2
20260901222641 31 32 0.0 0.0 0.00 0.00 0.00 75 1016.2
20260901222137 31 7 1.6 1.6 0.00 0.00 0.00 75 1016.2
20260901221633 32 103 1.6 1.6 0.00 0.00 0.00 73 1016.2
20260901221129 32 124 3.2 3.2 0.00 0.00 0.00 71 1016.3
20260901220627 32 41 1.6 1.6 0.00 0.00 0.00 72 1016.2
20260901220127 33 155 0.0 1.6 0.00 0.00 0.00 72 1016.3
20260901215625 33 34 0.0 3.2 0.00 0.00 0.00 71 1016.1
20260901215120 32 68 3.2 4.8 0.00 0.00 0.00 70 1016.1
20260901214618 33 241 1.6 4.8 0.00 0.00 0.00 69 1016.0
20260901214113 33 249 0.0 1.6 0.00 0.00 0.00 70 1016.3
20260901213612 33 109 0.0 1.6 0.00 0.00 0.00 69 1016.3
20260901213107 33 242 3.2 4.8 0.00 0.00 0.00 67 1016.3
20260901212607 34 172 0.0 1.6 0.00 0.00 0.00 69 1016.4
20260901212104 33 127 1.6 3.2 0.00 0.00 0.00 66 1016.4
20260901211558 33 55 1.6 3.2 0.00 0.00 0.00 67 1016.5
20260901211055 33 73 0.0 1.6 0.00 0.00 0.00 68 1016.1
20260901210550 33 26 1.6 3.2 0.00 0.00 0.00 68 1016.3
20260901210046 33 255 0.0 0.0 0.00 0.00 0.00 70 1016.3
20260901205542 34 283 0.0 0.0 0.00 0.00 0.00 67 1016.5
20260901205041 34 253 0.0 3.2 0.00 0.00 0.00 67 1016.4
20260901204538 34 288 1.6 1.6 0.00 0.00 0.00 68 1016.2
20260901204032 34 325 1.6 1.6 0.00 0.00 0.00 67 1016.4
20260901203527 -17 0.0 0.0 0.00 0.00 0.00 1016.3
20260901203022 33 144 0.0 0.0 0.00 0.00 0.00 65 1016.3
20260901202516 33 144 0.0 0.0 0.00 0.00 0.00 65 1016.2
20260901202013 33 144 0.0 0.0 0.00 0.00 0.00 65 1016.3
20260901201508 -17 0.0 0.0 0.00 0.00 0.00 1016.2
20260901201002 33 108 1.6 3.2 0.00 0.00 0.00 63 1016.4
20260901200456 33 108 1.6 3.2 0.00 0.00 0.00 63 1016.5
20260901195955 33 108 1.6 1.6 0.00 0.00 0.00 64 1016.5
20260901195454 33 108 0.0 1.6 0.00 0.00 0.00 65 1016.6
20260901194949 32 108 0.0 1.6 0.00 0.00 0.00 67 1016.7
20260901194444 33 359 1.6 1.6 0.00 0.00 0.00 65 1016.8
20260901193940 32 308 0.0 0.0 0.00 0.00 0.00 68 1017.0
20260901193439 30 283 1.6 1.6 0.00 0.00 0.00 78 1016.9
20260901192939 30 283 1.6 1.6 0.00 0.00 0.00 78 1017.1
20260901192435 30 283 1.6 1.6 0.00 0.00 0.00 77 1017.0
20260901191931 30 296 1.6 1.6 0.00 0.00 0.00 82 1017.0
20260901191426 30 280 4.8 6.4 0.00 0.00 0.00 81 1017.3
20260901190922 31 282 1.6 4.8 0.00 0.00 0.00 80 1017.2
20260901190422 31 279 3.2 3.2 0.00 0.00 0.00 78 1017.2
20260901185920 31 268 1.6 1.6 0.00 0.00 0.00 80 1017.3
20260901185420 31 268 1.6 1.6 0.00 0.00 0.00 80 1017.4
20260901184920 31 268 1.6 3.2 0.00 0.00 0.00 80 1017.5
20260901184415 30 270 0.0 0.0 0.00 0.00 0.00 83 1017.5
20260901183910 30 275 3.2 3.2 0.00 0.00 0.00 82 1017.6
20260901183410 31 280 4.8 6.4 0.00 0.00 0.00 81 1017.7
20260901182906 32 247 1.6 3.2 0.00 0.00 0.00 82 1017.8
20260901182401 32 194 1.6 1.6 0.00 0.00 0.00 73 1017.8
20260901181856 32 266 0.0 3.2 0.00 0.00 0.00 73 1017.9
20260901181356 32 234 3.2 3.2 0.00 0.00 0.00 73 1017.8
20260901180855 32 81 0.0 1.6 0.00 0.00 0.00 73 1017.8
20260901180354 32 79 0.0 1.6 0.00 0.00 0.00 75 1017.8